#timestamp,LO_Frequency,Hit,StdDev 
1575104415.7,286047002.4,N
1575104435.6,286047002.8,N
1575104455.4,286047000.4,N
1575104475.2,286047001.3,N
1575104495.1,286047001.8,N
1575104496.0,286047001.8,N
1575104515.8,286047002.4,N
1575104535.6,286047000.1,N
1575104555.5,286047002.8,N
1575104575.3,286047001.9,N
1575104595.2,286047000.0,N
1575104615.9,286046998.2,N
1575104635.7,286046998.1,N
1575104655.6,286046998.9,N
1575104675.4,286046998.4,N
1575104695.2,286046999.5,N
1575104715.1,286046997.0,N
1575104716.0,286046997.0,N
1575104735.8,286046996.5,N
1575104755.7,286046997.3,N
1575104775.5,286046997.9,N
1575104795.3,286046998.9,N
1575104815.2,286046996.5,N
1575104835.0,286046999.1,N
1575104835.9,286046999.1,N
1575104855.8,286046998.4,N
1575104875.6,286046999.1,N
1575104895.4,286046998.4,N
1575104915.3,286046998.9,N
1575104935.1,286046999.6,N
1575104955.8,286047000.9,N
1575104975.7,286046998.8,N
1575104995.5,286046999.3,N
1575105015.4,286046998.2,N
1575105035.2,286046998.5,N
1575105055.0,286046999.7,N
1575105055.9,286046999.7,N
1575105075.8,286047000.2,N
1575105095.6,286047002.4,N
1575105115.5,286046999.8,N
1575105135.3,286047000.5,N
1575105155.1,286047000.2,N
1575105175.9,286047000.2,N
1575105195.7,286047001.1,N
1575105215.6,286046999.9,N
1575105235.4,286046999.7,N
1575105255.2,286047002.1,N
1575105275.1,286047002.0,N
1575105276.0,286047002.0,N
1575105295.8,286047002.3,N
1575105315.6,286047000.4,N
1575105335.5,286047002.3,N
1575105355.3,286046998.4,N
1575105375.2,286047001.1,N
1575105395.9,286047000.9,N
1575105415.7,286047000.5,N
1575105435.6,286047000.6,N
1575105455.4,286047001.1,N
1575105475.3,286046998.4,N
1575105495.1,286046998.1,N
1575105496.0,286046998.1,N
1575105515.8,286047001.1,N
1575105535.7,286047002.8,N
1575105555.5,286047000.9,N
1575105575.3,286046998.5,N
1575105595.2,286046999.4,N
1575105615.0,286046999.6,N
1575105615.9,286046999.6,N
1575105635.8,286046996.9,N
1575105655.6,286046997.8,N
1575105675.4,286046996.8,N
1575105695.3,286047000.8,N
1575105715.1,286047001.0,N
1575105735.9,286046998.1,N
1575105755.7,286046999.8,N
1575105775.5,286047000.0,N
1575105795.4,286047001.1,N
1575105815.2,286047000.4,N
1575105835.0,286047000.4,N
1575105836.0,286047000.4,N
1575105855.8,286047000.6,N
1575105875.6,286046999.2,N
1575105895.5,286046998.4,N
1575105915.3,286046998.6,N
1575105935.1,286046998.4,N
1575105955.9,286046999.3,N
1575105975.7,286046997.1,N
1575105995.5,286046999.3,N
1575106015.4,286047000.4,N
1575106035.2,286047002.3,N
1575106055.1,286047001.2,N
1575106056.0,286047001.2,N
1575106075.8,286046999.8,N
1575106095.6,286046998.1,N
1575106115.5,286047002.0,N
1575106135.3,286047003.6,N
1575106155.1,286047004.4,N
1575106175.9,286047001.4,N
1575106195.7,286047001.3,N
1575106215.6,286047002.8,N
1575106235.4,286047001.4,N
1575106255.2,286047001.7,N
1575106275.1,286047001.7,N
1575106276.0,286047001.7,N
1575106295.8,286047004.0,N
1575106315.7,286047003.8,N
1575106335.5,286047003.0,N
1575106355.3,286047003.1,N
1575106375.2,286047004.4,N
1575106395.0,286047001.5,N
1575106395.9,286047001.5,N
1575106415.7,286047003.2,N
1575106435.6,286047005.6,N
1575106455.4,286047005.7,N
1575106475.3,286047007.2,Y
1575106495.1,286047002.4,P
1575106515.8,286047001.2,P
1575106535.7,286047000.5,N
1575106555.5,286047002.3,Y
1575106575.4,286047000.2,P
1575106595.2,286047001.6,N
1575106615.0,286047002.5,P
1575106615.9,286047002.5,Y
1575106635.8,286046998.5,P
1575106655.6,286046996.8,N
1575106675.5,286046999.1,N
1575106695.3,286046997.0,N
1575106715.1,286046999.6,N
1575106735.9,286046997.2,N
1575106755.7,286046997.5,N
1575106775.5,286046997.4,N
1575106795.4,286046996.7,N
1575106815.2,286046997.9,N
1575106835.1,286046996.6,N
1575106836.0,286046996.6,N
1575106855.8,286046998.8,N
1575106875.6,286046999.3,N
1575106895.5,286046999.2,N
1575106915.3,286047000.0,N
1575106935.2,286047000.8,N
1575106955.9,286046998.4,N
1575106975.7,286047000.8,N
1575106995.6,286046998.8,N
1575107015.4,286046999.4,N
1575107035.2,286046996.6,N
1575107055.1,286046997.0,N
1575107056.0,286046997.0,N
1575107075.8,286046998.0,N
1575107095.7,286046996.2,N
1575107115.5,286046996.3,N
1575107135.3,286046993.5,Y
1575107155.2,286046995.7,P
1575107175.0,286046995.0,P
1575107175.9,286046995.0,P
1575107195.7,286046995.4,Y
1575107215.6,286046998.6,P
1575107235.4,286047001.0,N
1575107255.3,286046999.6,N
1575107275.1,286046998.5,N
1575107276.0,286046998.5,N
1575107295.8,286046996.5,N
1575107315.7,286046998.2,N
1575107335.5,286047002.4,N
1575107355.4,286047000.5,N
1575107375.2,286047004.2,N
1575107395.0,286047004.4,N
1575107395.9,286047004.4,N
1575107415.8,286047003.2,N
1575107435.6,286047001.7,N
1575107455.4,286047000.1,N
1575107475.3,286047000.8,N
1575107495.1,286047000.5,N
1575107515.9,286047000.1,N
1575107535.7,286046999.7,N
1575107555.5,286047000.4,N
1575107575.4,286046999.8,N
1575107595.2,286047000.3,N
1575107615.0,286046998.3,N
1575107615.9,286046998.3,N
1575107635.8,286046999.2,N
1575107655.6,286046998.5,N
1575107675.5,286047000.9,N
1575107695.3,286047000.1,N
1575107715.1,286046998.2,N
1575107735.9,286046998.2,N
1575107755.7,286046998.8,N
1575107775.5,286047000.7,N
1575107795.4,286047000.9,N
1575107815.2,286046998.5,N
1575107835.1,286046999.9,N
1575107836.0,286046999.9,N
1575107855.8,286047002.5,N
1575107875.6,286047002.0,N
1575107895.5,286047001.1,N
1575107915.3,286047000.3,N
1575107935.1,286047000.9,N
1575107955.9,286046998.9,N
1575107975.7,286046998.1,N
1575107995.6,286046998.3,N
